レモン-アトラス彗星

C/2022 A3 ( Lemmon-ATLAS )

English version
Home page
Updated on October 12, 2023

---------------------------------------------------------------------

・ プロフィール

発見日 2022年1月10日、3月1日
発見光度 20.3等、19.2等
発見者 Mt. Lemmon Survey, Asteroid Terrestrial-Impact Last Alert System (ATLAS) search program

・ 写真集

・ 軌道要素

Epoch 2023 Feb. 25.0 TT = JDT 2460000.5
T 2023 Sept. 28.84211 TT                                Rudenko
q   3.7034607            (2000.0)            P               Q
z  +0.0010853      Peri.  234.84664     -0.48776495     +0.66427581
 +/-0.0000007      Node   325.48320     +0.60660965     -0.20868471
e   0.9959806      Incl.   88.34804     -0.62778188     -0.71776621
>From 858 observations 2021 Apr. 30-2023 June 11, mean residual 0".4.

・ 星図

・ 光度変化

        m1 = 7.5 + 5 logΔ + 10.0 log r

---------------------------------------------------------------------

軌道要素はM.P.E.C. 2023-M14に掲載されたものです。
星図はステラナビゲータ Ver.10 (アストロアーツ) で作成したものです。
光度グラフはComet for Windowsで作成したものです。

---------------------------------------------------------------------

Copyright(C) Seiichi Yoshida (comet@aerith.net). All rights reserved.